[[{"header":{"parameterUnit":"m.s-1","parameterCategory":1,"la1":30.2991,"la2":30.254,"lo1":-89.0895,"lo2":-89.0444,"dy":0.0017,"dx":0.0017,"nx":28,"ny":28,"refTime":"2025-07-09T21:00:00:Z","depth":0,"parameterNumber":2,"parameterNumberName":"U-component_of_WINDS"},"data":[0,0,0,0,0,0,0,0,0,0,0,0,0,0,0,0,0,0,0,0,0,0,0,0,0,0,0,0,0,0,0,0,0,0,0,0,0,0,0,0,0,0,0,0,0,0,0,0,0,0,0,0,0,0,0,0,0,0,2.3109,2.3109,0,2.3052,2.3051,2.305,2.2985,2.2984,2.2983,2.2982,2.2925,2.2924,2.2924,0,0,0,0,0,0,0,0,0,0,0,0,0,2.3166,2.3165,2.3109,2.3108,2.3108,2.3052,2.3051,2.305,2.2985,2.2984,2.2982,2.2981,2.2925,2.2925,2.2924,0,0,0,0,0,0,0,0,0,0,0,0,0,2.3128,2.3165,2.3109,2.3068,2.3064,2.3052,2.3051,2.305,2.2985,2.2984,2.2982,2.2981,2.2925,2.2925,2.2924,2.2948,0,0,2.2921,2.2921,0,0,0,0,0,0,0,0,2.313,2.3126,2.3075,2.3071,2.3066,2.3024,2.305,2.3016,2.2985,2.3015,2.2982,2.298,2.2959,2.2955,2.2948,2.2945,2.2943,2.2921,2.292,2.292,2.292,0,0,0,0,0,0,0,2.3133,2.3128,2.3086,2.3074,2.3069,2.3054,2.3047,2.3043,2.2996,2.3012,2.3008,2.3002,2.2957,2.2949,2.2946,2.2942,2.2921,2.292,2.292,2.2919,2.2958,2.2959,0,0,0,0,0,0,2.3142,2.3131,2.3088,2.3085,2.3095,2.3054,2.3046,2.3039,2.2996,2.2988,2.3003,2.2999,2.2951,2.2947,2.2944,2.297,2.292,2.2919,2.2919,2.2956,2.2958,2.296,0,0,0,0,0,0,2.3143,2.3138,2.3091,2.3106,2.3099,2.3055,2.3047,2.3039,2.3031,2.2989,2.298,2.3003,2.295,2.2945,2.2947,2.2967,2.2919,2.2918,2.2954,2.2957,2.2959,2.3022,0,0,0,0,0,0,2.3145,2.3139,2.3147,2.3107,2.3099,2.3094,2.3048,2.3039,2.3029,2.3023,2.2987,2.298,2.2948,2.2949,2.2947,2.2965,2.2917,2.2952,2.2955,2.2958,2.3018,2.3027,2.3034,0,0,0,0,0,2.3147,2.3167,2.3148,2.3143,2.3107,2.3095,2.3091,2.3053,2.3031,2.3039,2.3012,2.2981,2.2966,2.295,2.2946,2.2965,2.2951,2.2954,2.2958,2.3015,2.3025,2.3033,0,0,0,0,0,0,2.3211,2.3161,2.3139,2.3146,2.3126,2.3084,2.3093,2.3065,2.3051,2.3046,2.3001,2.2994,2.3002,2.2983,2.2967,2.2987,2.2954,2.2957,2.2998,2.3008,2.3015,2.3019,2.2916,0,0,0,0,0,2.3226,2.3219,2.3177,2.3188,2.3178,2.3138,2.3131,2.3105,2.3082,2.3073,2.3046,2.3025,2.3016,2.3011,2.3,2.3016,2.3008,2.3027,2.3035,2.3041,2.3044,2.3053,2.3061,2.2971,2.2971,2.2971,0,0,2.3256,2.3229,2.3227,2.32,2.318,2.3176,2.3131,2.3128,2.3125,2.3072,2.3073,2.3053,2.3027,2.3037,2.304,2.3022,2.3068,2.3046,2.3051,2.3051,2.3057,2.3066,2.3074,2.2973,2.2973,2.2973,0,0,2.331,2.3288,2.3295,2.3277,2.3249,2.3222,2.3224,2.3187,2.3172,2.3172,2.3133,2.3129,2.3113,2.3097,2.3087,2.3137,2.3108,2.3135,2.3175,2.3184,2.3191,2.3197,2.3216,2.3223,2.3138,2.3138,2.3138,0,2.3352,2.3343,2.3303,2.3302,2.3292,2.3245,2.3253,2.3237,2.3207,2.3202,2.3182,2.3163,2.3142,2.3148,2.316,2.3153,2.3155,2.3138,2.3193,2.3199,2.3204,2.3222,2.3229,2.3142,2.3141,2.3141,2.3141,0,2.3397,2.3391,2.3401,2.3373,2.3364,2.3368,2.3329,2.3325,2.33,2.3276,2.3277,2.3251,2.3235,2.3234,2.3209,2.3237,2.3227,2.3201,2.3167,2.3217,2.3233,2.3239,2.3147,2.3145,2.3144,2.3144,0,0,2.3488,2.3438,2.3443,2.343,2.3396,2.3391,2.3394,2.3378,2.3376,2.3357,2.3359,2.3348,2.3324,2.3313,2.3286,2.3294,2.3337,2.3267,2.3266,2.3281,2.3367,2.3387,2.3396,2.3317,2.3319,2.3319,2.337,0,2.3536,2.3537,2.3501,2.3513,2.3508,2.3464,2.3467,2.3447,2.3425,2.3419,2.3395,2.3388,2.3356,2.3349,2.3355,2.333,2.3354,2.3326,2.332,2.332,2.3328,2.3404,2.3424,2.3473,2.3376,2.3377,2.3377,0,2.3592,2.3576,2.3587,2.3554,2.3551,2.3554,2.3537,2.3531,2.3509,2.3492,2.348,2.345,2.3452,2.342,2.3422,2.3405,2.34,2.3388,2.3389,2.3387,2.3352,2.3405,2.3488,2.3495,2.3387,2.3386,2.3385,0,2.3658,2.364,2.3645,2.3635,2.3597,2.36,2.3584,2.356,2.3553,2.3539,2.3534,2.352,2.3513,2.3504,2.3471,2.3451,2.3479,2.3443,2.3466,2.3467,2.3474,2.3474,2.3558,2.3471,2.347,2.347,2.347,0,2.3716,2.3724,2.3674,2.3677,2.3686,2.3646,2.3657,2.3637,2.3616,2.3615,2.3576,2.3577,2.3534,2.353,2.3504,2.3511,2.3508,2.3496,2.3489,2.3499,2.3501,2.3496,2.3492,2.3472,2.3472,2.3471,2.3471,0,2.3791,2.3758,2.376,2.3724,2.3715,2.3724,2.3693,2.3695,2.3671,2.3671,2.3668,2.3631,2.3625,2.3591,2.3577,2.356,2.3576,2.3562,2.3584,2.3579,2.3604,2.3603,2.3688,2.3698,2.3604,2.3605,2.3606,0,2.383,2.3836,2.3801,2.3797,2.3783,2.3778,2.3771,2.3733,2.3727,2.3703,2.3708,2.3698,2.3688,2.368,2.3653,2.3642,2.3628,2.3659,2.3626,2.3637,2.3629,2.3629,2.363,2.3666,2.3667,2.3668,2.3669,0,2.3904,2.3887,2.3878,2.3864,2.3856,2.3843,2.3828,2.3828,2.3786,2.3782,2.3774,2.3766,2.3752,2.3743,2.3728,2.3713,2.3685,2.3679,2.3684,2.3695,2.3707,2.3702,2.3603,2.3678,2.3677,2.3676,2.3676,2.3675,2.3962,2.3966,2.3942,2.3934,2.3918,2.3905,2.3906,2.3882,2.3875,2.386,2.3839,2.3835,2.3814,2.379,2.3778,2.3775,2.3758,2.3765,2.3767,2.3769,2.3775,2.3708,2.3772,2.3772,2.3772,2.3771,2.3771,0,2.4034,2.4017,2.401,2.399,2.3984,2.3957,2.3939,2.3936,2.3933,2.3916,2.3907,2.39,2.3891,2.3864,2.3853,2.3856,2.3843,2.3855,2.3854,2.3852,2.379,2.3787,2.3866,2.3866,2.3866,2.3866,2.3866,2.3866,2.4071,2.4076,2.4057,2.4055,2.4038,2.4033,2.4026,2.4014,2.4,2.3993,2.3986,2.3968,2.3947,2.3935,2.3927,2.3919,2.3917,2.3934,2.3922,2.3865,2.3856,2.3847,2.3844,2.3933,2.3933,2.3983,2.3984,2.3984]},{"header":{"parameterUnit":"m.s-1","parameterCategory":1,"la1":30.2991,"la2":30.254,"lo1":-89.0895,"lo2":-89.0444,"dy":0.0017,"dx":0.0017,"nx":28,"ny":28,"refTime":"2025-07-09T21:00:00:Z","depth":0,"parameterNumber":3,"parameterNumberName":"V-component_of_WINDS"},"data":[0,0,0,0,0,0,0,0,0,0,0,0,0,0,0,0,0,0,0,0,0,0,0,0,0,0,0,0,0,0,0,0,0,0,0,0,0,0,0,0,0,0,0,0,0,0,0,0,0,0,0,0,0,0,0,0,0,0,1.4176,1.4177,0,1.4256,1.4257,1.4258,1.4292,1.4292,1.4292,1.4292,1.4372,1.4375,1.4377,0,0,0,0,0,0,0,0,0,0,0,0,0,1.4046,1.4049,1.4176,1.4177,1.4178,1.4256,1.4257,1.4258,1.4292,1.4292,1.4292,1.4292,1.4372,1.4374,1.4377,0,0,0,0,0,0,0,0,0,0,0,0,0,1.4112,1.4049,1.4175,1.4204,1.4207,1.4256,1.4257,1.4259,1.4292,1.4292,1.4292,1.4292,1.4371,1.4374,1.4377,1.4403,0,0,1.4388,1.4389,0,0,0,0,0,0,0,0,1.4108,1.4117,1.4199,1.4202,1.4206,1.4264,1.4241,1.4307,1.4292,1.426,1.4292,1.4292,1.4336,1.4343,1.4358,1.4407,1.441,1.4388,1.439,1.4392,1.4393,0,0,0,0,0,0,0,1.4104,1.4114,1.4208,1.42,1.4204,1.4211,1.4221,1.4254,1.4298,1.4263,1.4266,1.4275,1.4338,1.4355,1.436,1.4411,1.4388,1.4391,1.4393,1.4395,1.4481,1.4481,0,0,0,0,0,0,1.4095,1.411,1.4205,1.421,1.4156,1.4214,1.4224,1.4246,1.4298,1.4306,1.4275,1.4276,1.4349,1.4356,1.4363,1.4394,1.4392,1.4395,1.4397,1.4481,1.4481,1.4481,0,0,0,0,0,0,1.4092,1.4103,1.4202,1.4161,1.4174,1.4216,1.424,1.4247,1.4264,1.4307,1.4315,1.4284,1.4349,1.4358,1.4392,1.4398,1.4396,1.44,1.448,1.4481,1.4481,1.4458,0,0,0,0,0,0,1.4088,1.4102,1.4114,1.4161,1.4176,1.4231,1.4241,1.4249,1.427,1.4272,1.4318,1.4325,1.435,1.4387,1.4395,1.4402,1.4402,1.448,1.448,1.4481,1.4459,1.4458,1.4457,0,0,0,0,0,1.4084,1.4104,1.4114,1.4125,1.4191,1.4231,1.4239,1.4268,1.427,1.4281,1.4308,1.4324,1.4396,1.439,1.44,1.4408,1.448,1.448,1.4481,1.4459,1.4458,1.4457,0,0,0,0,0,0,1.4057,1.4111,1.4123,1.4159,1.419,1.4237,1.4252,1.4267,1.4297,1.4298,1.4331,1.4341,1.4371,1.4393,1.4386,1.4434,1.4439,1.4441,1.4419,1.4418,1.4417,1.4411,1.4405,0,0,0,0,0,1.4055,1.4084,1.4129,1.4157,1.4172,1.4209,1.4227,1.4246,1.428,1.4293,1.4323,1.4353,1.4383,1.4402,1.4431,1.4461,1.4471,1.4472,1.4471,1.447,1.4472,1.4486,1.4487,1.4483,1.4483,1.4483,0,0,1.4052,1.4085,1.4102,1.4153,1.4179,1.4206,1.422,1.4249,1.4269,1.4297,1.4331,1.4353,1.4389,1.4421,1.4436,1.444,1.4474,1.4471,1.447,1.4472,1.4487,1.4487,1.4488,1.4483,1.4483,1.4483,0,0,1.406,1.4089,1.4114,1.414,1.4179,1.4203,1.4209,1.4252,1.4268,1.4302,1.4323,1.4346,1.4397,1.4421,1.444,1.4453,1.4468,1.4462,1.4458,1.4472,1.4472,1.4472,1.4475,1.4476,1.4463,1.4463,1.4463,0,1.4052,1.4095,1.4125,1.4153,1.4173,1.4199,1.4223,1.4247,1.4293,1.4306,1.4309,1.4371,1.4398,1.4434,1.4436,1.4452,1.4457,1.4457,1.447,1.447,1.4471,1.4474,1.4476,1.4462,1.4463,1.4463,1.4463,0,1.4081,1.4111,1.4126,1.417,1.4192,1.4218,1.425,1.4269,1.4285,1.4307,1.434,1.4372,1.4407,1.4417,1.4433,1.4454,1.4455,1.4463,1.4469,1.447,1.4473,1.4475,1.4461,1.4461,1.4462,1.4462,0,0,1.4077,1.4135,1.414,1.4159,1.4203,1.4226,1.4251,1.4286,1.43,1.433,1.4351,1.4391,1.4399,1.442,1.4439,1.4451,1.4457,1.4458,1.4459,1.4455,1.4479,1.4472,1.4473,1.4466,1.4466,1.4467,1.4476,0,1.409,1.4139,1.4165,1.4201,1.4227,1.425,1.4272,1.43,1.4321,1.4344,1.4367,1.4395,1.4403,1.4416,1.4429,1.4453,1.4462,1.4453,1.4484,1.4485,1.4474,1.4475,1.4469,1.4476,1.4477,1.4478,1.4478,0,1.4113,1.4143,1.4182,1.422,1.4231,1.4251,1.4283,1.4306,1.4337,1.4351,1.4373,1.4391,1.4416,1.4419,1.4453,1.4446,1.446,1.4474,1.4474,1.4479,1.4482,1.4478,1.4479,1.448,1.4481,1.448,1.448,0,1.4104,1.4154,1.4183,1.4198,1.4244,1.4256,1.4276,1.4307,1.4324,1.4352,1.4363,1.4393,1.4409,1.4431,1.4455,1.4456,1.4486,1.4492,1.4497,1.4496,1.4503,1.4502,1.4505,1.4512,1.4512,1.4512,1.4512,0,1.4117,1.4139,1.4179,1.4197,1.4222,1.425,1.4273,1.4294,1.432,1.4341,1.4363,1.4381,1.4413,1.4434,1.4454,1.4477,1.4485,1.4496,1.45,1.4494,1.4492,1.4503,1.4503,1.4512,1.4512,1.4512,1.4512,0,1.4111,1.4139,1.4172,1.4212,1.4222,1.4238,1.4271,1.4288,1.4309,1.4335,1.4342,1.4375,1.4401,1.4427,1.4463,1.4476,1.4499,1.4506,1.4489,1.4491,1.4494,1.4493,1.4504,1.4506,1.4513,1.4513,1.4513,0,1.4117,1.4135,1.4176,1.4191,1.421,1.4235,1.4253,1.428,1.4298,1.4333,1.4345,1.4373,1.4397,1.4437,1.4463,1.4489,1.4497,1.4498,1.4501,1.4492,1.4495,1.4494,1.4495,1.4498,1.4497,1.4497,1.4497,0,1.4124,1.4136,1.4162,1.4192,1.4212,1.4237,1.4262,1.4273,1.4305,1.4323,1.4351,1.4369,1.4404,1.4431,1.446,1.4478,1.4492,1.4496,1.4498,1.4492,1.448,1.4485,1.4485,1.4496,1.4496,1.4496,1.4496,1.4496,1.4124,1.414,1.417,1.4197,1.4219,1.4241,1.4258,1.428,1.4304,1.4336,1.435,1.4376,1.4403,1.4444,1.4461,1.4481,1.4485,1.4489,1.449,1.449,1.4488,1.4477,1.4487,1.4487,1.4487,1.4487,1.4487,0,1.4131,1.4151,1.4175,1.4209,1.423,1.4241,1.4269,1.4285,1.4308,1.4333,1.4355,1.4385,1.441,1.4437,1.4463,1.4474,1.448,1.448,1.4479,1.4482,1.4484,1.4478,1.4473,1.4473,1.4473,1.4473,1.4473,1.4473,1.4136,1.4163,1.4178,1.4214,1.4234,1.4261,1.4276,1.4295,1.4315,1.4347,1.4368,1.4385,1.441,1.4437,1.446,1.4467,1.4475,1.4472,1.4481,1.4482,1.4483,1.4484,1.4479,1.4474,1.4474,1.4478,1.4478,1.4478]}]]